Flag for Germany Weather past 2 weeks in Senftenberg, Brandenburg, Germany

Now
47 °F

Light rain. Low clouds.


Feels Like: 47 °F
Forecast: 37 / 70 °F
Wind: 2 mph from Southwest

Location: Cottbus


UV Index: 3 (Moderate)

Visibility: 7 mi


Pressure: 29.85 "Hg

Humidity: 82%

Dew point: 42 °F

Location of SenftenbergLocation

Historic Weather in Senftenberg

°F

Senftenberg temperature yesterday

Maximum temperature yesterday: 57 °F (at 3:00 PM)
Minimum temperature yesterday: 29 °F (at 6:00 AM)
Average temperature yesterday: 43 °F

Past Weeks' High & Low Weather Summary

 TemperatureHumidityPressure
High72 °F (Apr 3, 3:00 PM)99% (Apr 16, 7:00 AM)30.44 "Hg (Apr 16, 7:00 AM)
Low29 °F (Apr 17, 6:00 AM)29% (Apr 17, 5:00 PM)29.65 "Hg (Apr 3, 4:00 PM)
Average50 °F72%30.02 "Hg
* Reported Apr 3 3:00 PM — Apr 18 3:00 PM, Senftenberg, Weather by CustomWeather, © 2014

Note: Actual official high and low records may vary slightly from our data, if they occured in-between our weather recording intervals... More about our weather records

Advertising

Historic Weather Conditions — Data for Previous 24 hours

 ConditionsComfort  
Time TempWeatherWind HumidityBarometerVisibility
3:00 PM
Apr 18
48 °FSprinkles. Overcast.2 mph84%29.84 "Hg9 mi
2:00 PM47 °FOvercast.2 mph75%29.83 "Hg37 mi
1:00 PM45 °FSprinkles. Overcast.2 mph83%29.83 "Hg19 mi
12:00 PM45 °FSprinkles. Overcast.1 mph81%29.83 "Hg28 mi
11:00 AM43 °FLight rain. Low clouds.1 mph84%29.82 "Hg16 mi
10:00 AM42 °FRain. Low clouds.2 mph92%29.81 "Hg6 mi
9:00 AM43 °FRain. Low clouds.3 mph96%29.80 "Hg2 mi
8:00 AM42 °FRain. Low clouds.3 mph92%29.80 "Hg2 mi
7:00 AM43 °FLight rain. Overcast.2 mph77%29.79 "Hg7 mi
6:00 AM44 °FOvercast.2 mph61%29.79 "Hg25 mi
5:00 AM44 °FOvercast.2 mph58%29.80 "Hg28 mi
4:00 AM46 °FOvercast.2 mph52%29.80 "Hg25 mi
3:00 AM46 °FOvercast.3 mph51%29.82 "Hg25 mi
2:00 AM46 °FOvercast.3 mph50%29.85 "Hg12 mi
6:00 PM
Apr 17
56 °FOvercast.5 mph33%30.07 "Hg43 mi
5:00 PM56 °FOvercast.5 mph29%30.10 "Hg43 mi
4:00 PM57 °FOvercast.5 mph30%30.14 "Hg40 mi
Weather by CustomWeather, © 2014

See weather overview